TimeEST,TemperatureF,Dew PointF,Humidity,Sea Level PressureIn,VisibilityMPH,Wind Direction,Wind SpeedMPH,Gust SpeedMPH,PrecipitationIn,Events,Conditions,WindDirDegrees,DateUTC
12:15 AM,30.2,19.4,64,30.06,10.0,ENE,10.4,-,N/A,,Clear,60,2013-02-26 05:15:00
12:35 AM,30.2,19.4,64,30.06,10.0,East,9.2,-,N/A,,Clear,80,2013-02-26 05:35:00
12:55 AM,30.2,19.4,64,30.06,10.0,ENE,9.2,-,N/A,,Clear,70,2013-02-26 05:55:00
1:15 AM,28.4,19.4,69,30.06,10.0,ENE,9.2,-,N/A,,Clear,70,2013-02-26 06:15:00
1:35 AM,28.4,19.4,69,30.06,10.0,ENE,9.2,-,N/A,,Clear,70,2013-02-26 06:35:00
1:55 AM,30.2,19.4,64,30.07,10.0,ENE,8.1,-,N/A,,Clear,70,2013-02-26 06:55:00
2:15 AM,28.4,19.4,69,30.05,10.0,ENE,9.2,-,N/A,,Clear,70,2013-02-26 07:15:00
2:35 AM,28.4,19.4,69,30.06,10.0,East,9.2,-,N/A,,Clear,80,2013-02-26 07:35:00
2:55 AM,28.4,19.4,69,30.05,10.0,East,10.4,-,N/A,,Clear,80,2013-02-26 07:55:00
3:15 AM,30.2,19.4,64,30.03,10.0,ENE,9.2,-,N/A,,Clear,60,2013-02-26 08:15:00
3:35 AM,30.2,19.4,64,30.02,10.0,ENE,9.2,-,N/A,,Clear,70,2013-02-26 08:35:00
3:55 AM,28.4,19.4,69,30.01,10.0,ENE,9.2,-,N/A,,Clear,70,2013-02-26 08:55:00
4:15 AM,30.2,19.4,64,30.00,10.0,ENE,10.4,-,N/A,,Clear,70,2013-02-26 09:15:00
4:35 AM,30.2,19.4,64,29.99,10.0,ENE,10.4,-,N/A,,Clear,70,2013-02-26 09:35:00
4:55 AM,30.2,19.4,64,29.99,10.0,East,11.5,-,N/A,,Clear,80,2013-02-26 09:55:00
5:15 AM,30.2,19.4,64,29.97,10.0,ENE,11.5,-,N/A,,Clear,70,2013-02-26 10:15:00
5:35 AM,30.2,21.2,69,29.96,10.0,East,10.4,-,N/A,,Clear,80,2013-02-26 10:35:00
5:55 AM,30.2,21.2,69,29.99,10.0,East,8.1,-,N/A,,Clear,100,2013-02-26 10:55:00
6:15 AM,32.0,21.2,64,29.98,10.0,East,10.4,-,N/A,,Clear,90,2013-02-26 11:15:00
6:35 AM,32.0,19.4,60,29.97,10.0,East,10.4,-,N/A,,Clear,90,2013-02-26 11:35:00
6:55 AM,32.0,19.4,60,29.95,10.0,East,12.7,-,N/A,,Clear,90,2013-02-26 11:55:00
7:15 AM,32.0,19.4,60,29.96,10.0,East,10.4,-,N/A,,Clear,100,2013-02-26 12:15:00
7:35 AM,33.8,19.4,56,29.96,10.0,East,11.5,-,N/A,,Clear,80,2013-02-26 12:35:00
7:55 AM,33.8,21.2,60,29.96,10.0,East,11.5,-,N/A,,Clear,90,2013-02-26 12:55:00
8:15 AM,33.8,21.2,60,29.94,10.0,East,13.8,-,N/A,,Clear,90,2013-02-26 13:15:00
8:35 AM,35.6,21.2,56,29.95,10.0,East,16.1,-,N/A,,Clear,100,2013-02-26 13:35:00
8:55 AM,35.6,21.2,56,29.93,10.0,East,16.1,-,N/A,,Clear,90,2013-02-26 13:55:00
9:15 AM,35.6,21.2,56,29.92,10.0,East,16.1,23.0,N/A,,Clear,100,2013-02-26 14:15:00
9:35 AM,37.4,21.2,52,29.94,10.0,ESE,10.4,18.4,N/A,,Clear,110,2013-02-26 14:35:00
9:55 AM,37.4,21.2,52,29.94,10.0,ESE,15.0,24.2,N/A,,Scattered Clouds,110,2013-02-26 14:55:00
10:15 AM,37.4,21.2,52,29.91,10.0,East,13.8,21.9,N/A,,Scattered Clouds,100,2013-02-26 15:15:00
10:35 AM,37.4,21.2,52,29.91,10.0,ESE,12.7,23.0,N/A,,Clear,110,2013-02-26 15:35:00
10:55 AM,37.4,23.0,56,29.91,10.0,East,18.4,21.9,N/A,,Mostly Cloudy,100,2013-02-26 15:55:00
11:15 AM,39.2,23.0,52,29.91,10.0,ESE,16.1,21.9,N/A,,Overcast,110,2013-02-26 16:15:00
11:35 AM,37.4,23.0,56,29.91,10.0,ESE,10.4,21.9,N/A,,Overcast,110,2013-02-26 16:35:00
11:55 AM,37.4,24.8,60,29.91,10.0,ESE,9.2,17.3,N/A,,Overcast,110,2013-02-26 16:55:00
12:15 PM,37.4,24.8,60,29.89,10.0,East,16.1,20.7,N/A,,Overcast,100,2013-02-26 17:15:00
12:35 PM,37.4,24.8,60,29.87,10.0,East,17.3,25.3,N/A,,Overcast,100,2013-02-26 17:35:00
12:55 PM,35.6,26.6,70,29.86,7.0,East,11.5,-,0.01,,Overcast,90,2013-02-26 17:55:00
1:15 PM,35.6,28.4,75,29.85,10.0,East,13.8,21.9,0.01,,Overcast,100,2013-02-26 18:15:00
1:35 PM,35.6,28.4,75,29.83,10.0,East,15.0,24.2,0.02,,Overcast,90,2013-02-26 18:35:00
1:55 PM,33.8,28.4,81,29.81,8.0,East,18.4,27.6,0.03,,Overcast,100,2013-02-26 18:55:00
2:15 PM,33.8,28.4,81,29.79,9.0,East,17.3,27.6,0.01,,Overcast,90,2013-02-26 19:15:00
2:35 PM,33.8,28.4,81,29.77,7.0,East,17.3,26.5,0.03,,Mostly Cloudy,100,2013-02-26 19:35:00
2:55 PM,33.8,28.4,81,29.76,6.0,East,20.7,25.3,0.05,,Mostly Cloudy,100,2013-02-26 19:55:00
3:15 PM,33.8,28.4,81,29.74,4.0,East,19.6,29.9,0.03,,Overcast,90,2013-02-26 20:15:00
3:35 PM,33.8,28.4,81,29.74,3.0,East,15.0,26.5,0.08,,Overcast,100,2013-02-26 20:35:00
3:55 PM,33.8,30.2,87,29.73,2.0,East,18.4,29.9,0.18,,Overcast,100,2013-02-26 20:55:00
4:15 PM,33.8,30.2,87,29.71,2.0,East,17.3,31.1,0.08,,Overcast,90,2013-02-26 21:15:00
4:35 PM,33.8,30.2,87,29.71,1.5,East,17.3,25.3,0.14,,Overcast,100,2013-02-26 21:35:00
4:55 PM,33.8,30.2,87,29.70,7.0,East,18.4,24.2,0.16,,Overcast,80,2013-02-26 21:55:00
5:15 PM,33.8,30.2,87,29.68,9.0,East,18.4,31.1,0.01,,Overcast,90,2013-02-26 22:15:00
5:35 PM,33.8,30.2,87,29.68,9.0,East,16.1,24.2,0.02,,Overcast,90,2013-02-26 22:35:00
5:55 PM,33.8,30.2,87,29.66,3.0,East,16.1,21.9,0.04,,Overcast,80,2013-02-26 22:55:00
6:15 PM,33.8,30.2,87,29.68,5.0,East,12.7,19.6,0.05,,Overcast,80,2013-02-26 23:15:00
6:35 PM,35.6,32.0,87,29.70,4.0,East,11.5,-,0.09,,Overcast,100,2013-02-26 23:35:00
6:55 PM,33.8,30.2,87,29.70,4.0,East,13.8,-,0.14,,Overcast,90,2013-02-26 23:55:00
7:15 PM,33.8,30.2,87,29.68,3.0,East,12.7,-,0.05,,Overcast,80,2013-02-27 00:15:00
7:35 PM,33.8,30.2,87,29.66,4.0,East,17.3,-,0.07,,Overcast,80,2013-02-27 00:35:00
7:55 PM,33.8,30.2,87,29.66,4.0,East,18.4,23.0,0.09,,Overcast,90,2013-02-27 00:55:00
8:15 PM,33.8,30.2,87,29.67,10.0,East,13.8,18.4,0.02,,Overcast,100,2013-02-27 01:15:00
8:35 PM,33.8,30.2,87,29.65,6.0,East,16.1,21.9,0.03,,Overcast,100,2013-02-27 01:35:00
8:55 PM,33.8,30.2,87,29.64,10.0,East,15.0,24.2,0.05,,Overcast,100,2013-02-27 01:55:00
9:15 PM,33.8,30.2,87,29.64,10.0,East,17.3,25.3,0.01,,Overcast,100,2013-02-27 02:15:00
9:35 PM,33.8,30.2,87,29.62,10.0,East,18.4,23.0,0.02,,Mostly Cloudy,100,2013-02-27 02:35:00
9:55 PM,33.8,30.2,87,29.60,10.0,East,20.7,26.5,0.02,,Overcast,100,2013-02-27 02:55:00
10:15 PM,35.6,30.2,81,29.60,10.0,East,15.0,23.0,0.01,,Overcast,100,2013-02-27 03:15:00
10:35 PM,35.6,30.2,81,29.60,10.0,East,15.0,20.7,0.01,,Overcast,100,2013-02-27 03:35:00
10:55 PM,35.6,32.0,87,29.59,10.0,East,13.8,20.7,0.01,,Overcast,100,2013-02-27 03:55:00
11:15 PM,35.6,32.0,87,29.58,10.0,East,15.0,20.7,0.01,,Overcast,100,2013-02-27 04:15:00
11:55 PM,35.6,32.0,87,29.58,10.0,East,9.2,-,0.02,,Overcast,100,2013-02-27 04:55:00